Terug naar catalogus

STARLINK-34370

ActiefCommunicatieVLEO
NORAD 64309·PAYLOAD·🇺🇸 United States

Gelanceerd Jun 8, 2025 vanaf Vandenberg Space Force Base

Loading…

Volgende Passages (komende 24 uur)

TLE

VersSource: CelesTrak SupGP

Epoch: Sep 14, 2026, 21:33 UTC

1 64309C 25123U   26257.89840278  .00029760  00000+0  10354-2 0  2578
2 64309  70.0001  75.8339 0003233 274.0560 287.8505 15.29559756    12

Volg STARLINK-34370 in realtime met AllMySat

Download on the App Store